This demonstration page uses our WeatherBlox Daily Observations layout. Learn more.

Left ArrowRight Arrow

53.62937, 11.41316

Hourly Observations for May 16, 2019

Temp ( °F °C ) Dew Point ( °F °C ) Humidity (%) Winds ( mph kmh ) Pressure ( in mb ) Visibility ( mi km ) Precip ( " mm )
6:50 am 06:50 Mostly Sunny 50 10 34 1 54 54 NE 14 22 30.18 1022 7 11 N/A
7:20 am 07:20 Mostly Sunny 52 11 34 1 50 50 NE 13 20 30.18 1022 7 11 N/A
7:50 am 07:50 Mostly Sunny 50 10 34 1 54 54 NNE 15 24 30.18 1022 30 48 N/A
8:20 am 08:20 Mostly Sunny 52 11 36 2 54 54 NNE 15 24 30.18 1022 7 11 N/A
8:50 am 08:50 Partly Cloudy with Drizzle 50 10 39 4 67 67 NNE 14 22 30.15 1021 30 48 N/A
9:20 am 09:20 Partly Cloudy 50 10 37 3 62 62 NNE 14 22 30.15 1021 30 48 N/A
9:50 am 09:50 Mostly Cloudy with Light Rain 50 10 41 5 71 71 NNE 10 17 30.15 1021 30 48 N/A
10:20 am 10:20 Mostly Cloudy 50 10 39 4 67 67 NNE 14 22 30.15 1021 30 48 N/A
10:50 am 10:50 Mostly Cloudy 50 10 39 4 67 67 NNE 14 22 30.12 1020 30 48 N/A
11:20 am 11:20 Mostly Cloudy 52 11 41 5 67 67 NNE 15 24 30.12 1020 30 48 N/A
11:50 am 11:50 Mostly Cloudy with Light Rain 50 10 41 5 71 71 NNE 18 30 30.12 1020 30 48 N/A
12:20 pm 12:20 Mostly Cloudy with Light Rain 48 9 45 7 87 87 NNE 13 20 30.09 1019 30 48 N/A
12:50 pm 12:50 Mostly Cloudy 48 9 45 7 87 87 NNE 14 22 30.09 1019 30 48 N/A
1:20 pm 13:20 Mostly Cloudy with Light Rain 48 9 45 7 87 87 N 13 20 30.09 1019 30 48 N/A
1:50 pm 13:50 Mostly Cloudy 48 9 45 7 87 87 N 13 20 30.06 1018 30 48 N/A
2:20 pm 14:20 Mostly Sunny 52 11 45 7 77 77 NNE 14 22 30.06 1018 7 11 N/A
2:50 pm 14:50 Mostly Sunny 54 12 45 7 72 72 NNE 20 31 30.03 1017 7 11 N/A
3:20 pm 15:20 Mostly Sunny 54 12 45 7 72 72 NE 21 33 30.03 1017 7 11 N/A
3:50 pm 15:50 Mostly Sunny 54 12 43 6 67 67 NE 21 33 30.03 1017 7 11 N/A
4:20 pm 16:20 Mostly Sunny 52 11 45 7 77 77 NE 21 33 30.00 1016 7 11 N/A
4:50 pm 16:50 Mostly Sunny 54 12 46 8 77 77 NE 16 26 30.00 1016 7 11 N/A
5:20 pm 17:20 Mostly Sunny 54 12 46 8 77 77 NE 16 26 30.00 1016 7 11 N/A
5:50 pm 17:50 Mostly Cloudy with Light Rain 54 12 46 8 77 77 NE 15 24 30.00 1016 5 8 N/A
6:20 pm 18:20 Mostly Cloudy 54 12 46 8 77 77 NE 15 24 30.00 1016 6 9 N/A
6:50 pm 18:50 Mostly Cloudy 54 12 46 8 77 77 NE 14 22 30.00 1016 6 9 N/A
7:20 pm 19:20 Mostly Cloudy 52 11 46 8 82 82 NE 13 20 30.00 1016 6 9 N/A
7:50 pm 19:50 Mostly Cloudy with Drizzle 52 11 46 8 82 82 NNE 13 20 30.00 1016 6 9 N/A
8:20 pm 20:20 Mostly Cloudy with Rain 50 10 46 8 88 88 NE 12 19 30.00 1016 2 4 N/A
8:50 pm 20:50 Mostly Cloudy with Drizzle 50 10 48 9 94 94 NE 9 15 30.00 1016 4 6 N/A

Powered by AerisWeather